Morning Charlotte — 3EMA2 — position and weather

sailwx.info

Track history (hours):
 
Tides and Currents Weather Stations Pressure Air Temp Water Temp Dewpoint Dewpoint Depression Visibility Wind Speed Wind Dir Waves Ship Positions

Morning Charlotte

Last reported at 2014-Oct-18 20:25 UTC. Time now 2014-Oct-21 16:42 UTC.
Position N 34°22' E 124°13'.

Length 200 m; draft 8.6 m.

Type: Cargo ship. MMSI: 357275000.

Date/timePositionNaut miles runAvg speedWind from/ knotsBaromVisibWave heightAir tempDewpointWater temp
2014-Oct-18 20:25N 34°22' E 124°13'3015.9
2014-Oct-18 18:33N 34°37' E 123°42'8416.7
2014-Oct-18 13:30N 35°21' E 122°13'1616.8
2014-Oct-18 12:32N 35°28' E 121°56'1816.8
2014-Oct-18 11:27N 35°40' E 121°38'1717.2
2014-Oct-18 10:29N 35°48' E 121°21'1212.2
2014-Oct-18 09:32N 35°55' E 121°09'1414.1
2014-Oct-18 08:31N 35°56' E 120°51'101 5.0
2014-Oct-17 12:33N 36°34' E 122°47'1715.9
2014-Oct-17 11:30N 36°40' E 123°06'8512.1
2014-Oct-17 04:29N 38°00' E 122°31'2017.0
2014-Oct-17 03:18N 37°55' E 122°06'1317.1
2014-Oct-17 02:33N 37°50' E 121°51'1716.9
2014-Oct-17 01:33N 37°43' E 121°31'1010.2
2014-Oct-17 00:33N 37°35' E 121°25'2 1.7
2014-Oct-16 23:31N 37°33' E 121°23'0 0.0
2014-Oct-16 22:28N 37°33' E 121°23'0 0.0
2014-Oct-16 21:28N 37°33' E 121°23'0 0.0
2014-Oct-16 20:31N 37°33' E 121°23'0 0.0
2014-Oct-16 19:28N 37°33' E 121°23'0 0.0
2014-Oct-16 18:31N 37°33' E 121°23'0 0.0
2014-Oct-16 17:31N 37°33' E 121°23'0 0.0
2014-Oct-16 16:31N 37°33' E 121°23'0 0.0
2014-Oct-16 15:31N 37°33' E 121°23'0 0.0
2014-Oct-16 14:31N 37°33' E 121°23'0 0.0
2014-Oct-16 13:25N 37°33' E 121°23'0 0.0
2014-Oct-16 12:31N 37°33' E 121°23'0 0.0
2014-Oct-16 11:31N 37°33' E 121°23'0 0.0
2014-Oct-16 10:31N 37°33' E 121°23'0 0.0
2014-Oct-16 09:28N 37°33' E 121°23'0 0.1
2014-Oct-16 08:33N 37°33' E 121°23'5 5.0
2014-Oct-16 07:33N 37°37' E 121°27'8 8.5
2014-Oct-16 06:33N 37°41' E 121°37'3 2.7
2014-Oct-16 05:33N 37°44' E 121°38'0 0.4
2014-Oct-16 04:33N 37°43' E 121°38'5 4.6
2014-Oct-16 03:33N 37°46' E 121°42'1 0.6
2014-Oct-16 02:33N 37°47' E 121°42'0 0.3
2014-Oct-16 01:33N 37°47' E 121°42'1211.3
2014-Oct-16 00:30N 37°53' E 121°55'2215.1
2014-Oct-15 23:03N 37°55' E 122°23'  
2014-Oct-13 17:03N 38°03' E 121°52'1316.7
2014-Oct-13 16:16N 38°10' E 121°38'17716.0
2014-Oct-13 05:12N 38°56' E 117°60'812.6
2014-Oct-13 04:33N 38°58' E 117°49'4 2.0
2014-Oct-13 02:32N 39°01' E 117°46'0 0.0
2014-Oct-13 01:32N 39°01' E 117°46'0 0.0
2014-Oct-13 00:32N 39°01' E 117°46'0 0.0
2014-Oct-12 23:32N 39°01' E 117°46'0 0.0
2014-Oct-12 22:32N 39°01' E 117°46'0 0.0
2014-Oct-12 21:20N 39°01' E 117°46'0 0.0
2014-Oct-12 20:32N 39°01' E 117°46'0 0.0
2014-Oct-12 19:32N 39°01' E 117°46'0 0.0
2014-Oct-12 18:32N 39°01' E 117°46'0 0.0
2014-Oct-12 17:26N 39°01' E 117°46'0 0.0
2014-Oct-12 16:32N 39°01' E 117°46'0 0.0
2014-Oct-12 15:26N 39°01' E 117°46'0 0.0
2014-Oct-12 14:26N 39°01' E 117°46'0 0.0
2014-Oct-12 13:32N 39°01' E 117°46'0 0.2
2014-Oct-12 12:32N 39°01' E 117°46'0 0.3
2014-Oct-12 11:32N 39°01' E 117°46'0 0.0
2014-Oct-12 10:32N 39°01' E 117°46'0 0.0
2014-Oct-12 09:32N 39°01' E 117°46'0 0.0
2014-Oct-12 08:32N 39°01' E 117°46'0 0.0
2014-Oct-12 07:32N 39°01' E 117°46'0 0.0
2014-Oct-12 06:32N 39°01' E 117°46'0 0.0
2014-Oct-12 05:26N 39°01' E 117°46'0 0.0
2014-Oct-12 04:26N 39°01' E 117°46'0 0.0
2014-Oct-12 03:32N 39°01' E 117°46'0 0.0
2014-Oct-12 02:26N 39°01' E 117°46'0 0.0
2014-Oct-12 01:32N 39°01' E 117°46'0 0.0
2014-Oct-12 00:32N 39°01' E 117°46'0 0.0
2014-Oct-11 23:26N 39°01' E 117°46'0 0.0
2014-Oct-11 22:28N 39°01' E 117°46'2 2.4
2014-Oct-11 21:33N 38°59' E 117°47'1412.8
2014-Oct-11 20:29N 38°56' E 118°04'6 6.2
2014-Oct-11 19:30N 38°53' E 118°11'50 9.8
2014-Oct-11 14:27N 38°48' E 119°15'910.5
2014-Oct-11 13:33N 38°48' E 119°27'2210.8
2014-Oct-11 11:31N 38°48' E 119°55'1212.3
2014-Oct-11 10:32N 38°48' E 120°10'1514.4
2014-Oct-11 09:29N 38°44' E 120°29'3515.1
2014-Oct-11 07:10N 38°29' E 121°09'914.3
2014-Oct-11 06:32N 38°23' E 121°18'1817.0
2014-Oct-11 05:30N 38°22' E 121°41'1916.2
2014-Oct-11 04:21N 38°27' E 122°04'4817.0
2014-Oct-11 01:33N 38°27' E 123°05'1817.4
2014-Oct-11 00:30N 38°25' E 123°28'3313.9
2014-Oct-10 22:08N 38°04' E 124°00'4718.2
2014-Oct-10 19:33N 37°17' E 123°60'1717.1
2014-Oct-10 18:33N 36°60' E 124°02'1716.6
2014-Oct-10 17:33N 36°43' E 123°60'1716.7
2014-Oct-10 16:33N 36°27' E 123°60'1717.1
2014-Oct-10 15:33N 36°10' E 124°00'1916.9
2014-Oct-10 14:24N 35°50' E 124°00'1616.6
2014-Oct-10 13:26N 35°34' E 123°59'2016.5
2014-Oct-10 12:13N 35°14' E 123°60'1116.3
2014-Oct-10 11:33N 35°03' E 123°60'3916.8
2014-Oct-10 09:14N 34°24' E 123°59'21115.3
2014-Oct-09 19:24N 31°05' E 122°35'1313.8
2014-Oct-09 18:30N 31°06' E 122°21'3214.4
2014-Oct-09 16:18N 31°18' E 121°46'5 4.7
2014-Oct-09 15:15N 31°19' E 121°41'0 0.0
2014-Oct-09 14:21N 31°19' E 121°41'0 0.0
2014-Oct-09 13:33N 31°19' E 121°41'0 0.0
2014-Oct-09 12:33N 31°19' E 121°41'0 0.0
2014-Oct-09 10:09N 31°19' E 121°41'0 0.0
2014-Oct-09 09:33N 31°19' E 121°41'0 0.0
2014-Oct-09 08:27N 31°19' E 121°41'0 0.0
2014-Oct-09 06:27N 31°19' E 121°41'0 0.0
2014-Oct-09 05:33N 31°19' E 121°41'0 0.0
2014-Oct-09 04:27N 31°19' E 121°41'5 5.1
2014-Oct-09 03:33N 31°18' E 121°46'3210.5
2014-Oct-09 00:29N 31°06' E 122°21'10 9.4
2014-Oct-08 23:28N 31°07' E 122°32'  
Track history (hours):
 
Tides and Currents Weather Stations Pressure Air Temp Water Temp Dewpoint Dewpoint Depression Visibility Wind Speed Wind Dir Waves Ship Positions

Morning Charlotte

Last reported at 2014-Oct-18 20:25 UTC. Time now 2014-Oct-21 16:42 UTC.
Position N 34°22' E 124°13'.

Length 200 m; draft 8.6 m.

Type: Cargo ship. MMSI: 357275000.

Date/timePositionNaut miles runAvg speedWind from/ knotsBaromVisibWave heightAir tempDewpointWater temp
2014-Oct-18 20:25N 34°22' E 124°13'3015.9
2014-Oct-18 18:33N 34°37' E 123°42'8416.7
2014-Oct-18 13:30N 35°21' E 122°13'1616.8
2014-Oct-18 12:32N 35°28' E 121°56'1816.8
2014-Oct-18 11:27N 35°40' E 121°38'1717.2
2014-Oct-18 10:29N 35°48' E 121°21'1212.2
2014-Oct-18 09:32N 35°55' E 121°09'1414.1
2014-Oct-18 08:31N 35°56' E 120°51'101 5.0
2014-Oct-17 12:33N 36°34' E 122°47'1715.9
2014-Oct-17 11:30N 36°40' E 123°06'8512.1
2014-Oct-17 04:29N 38°00' E 122°31'2017.0
2014-Oct-17 03:18N 37°55' E 122°06'1317.1
2014-Oct-17 02:33N 37°50' E 121°51'1716.9
2014-Oct-17 01:33N 37°43' E 121°31'1010.2
2014-Oct-17 00:33N 37°35' E 121°25'2 1.7
2014-Oct-16 23:31N 37°33' E 121°23'0 0.0
2014-Oct-16 22:28N 37°33' E 121°23'0 0.0
2014-Oct-16 21:28N 37°33' E 121°23'0 0.0
2014-Oct-16 20:31N 37°33' E 121°23'0 0.0
2014-Oct-16 19:28N 37°33' E 121°23'0 0.0
2014-Oct-16 18:31N 37°33' E 121°23'0 0.0
2014-Oct-16 17:31N 37°33' E 121°23'0 0.0
2014-Oct-16 16:31N 37°33' E 121°23'0 0.0
2014-Oct-16 15:31N 37°33' E 121°23'0 0.0
2014-Oct-16 14:31N 37°33' E 121°23'0 0.0
2014-Oct-16 13:25N 37°33' E 121°23'0 0.0
2014-Oct-16 12:31N 37°33' E 121°23'0 0.0
2014-Oct-16 11:31N 37°33' E 121°23'0 0.0
2014-Oct-16 10:31N 37°33' E 121°23'0 0.0
2014-Oct-16 09:28N 37°33' E 121°23'0 0.1
2014-Oct-16 08:33N 37°33' E 121°23'5 5.0
2014-Oct-16 07:33N 37°37' E 121°27'8 8.5
2014-Oct-16 06:33N 37°41' E 121°37'3 2.7
2014-Oct-16 05:33N 37°44' E 121°38'0 0.4
2014-Oct-16 04:33N 37°43' E 121°38'5 4.6
2014-Oct-16 03:33N 37°46' E 121°42'1 0.6
2014-Oct-16 02:33N 37°47' E 121°42'0 0.3
2014-Oct-16 01:33N 37°47' E 121°42'1211.3
2014-Oct-16 00:30N 37°53' E 121°55'2215.1
2014-Oct-15 23:03N 37°55' E 122°23'  
2014-Oct-13 17:03N 38°03' E 121°52'1316.7
2014-Oct-13 16:16N 38°10' E 121°38'17716.0
2014-Oct-13 05:12N 38°56' E 117°60'812.6
2014-Oct-13 04:33N 38°58' E 117°49'4 2.0
2014-Oct-13 02:32N 39°01' E 117°46'0 0.0
2014-Oct-13 01:32N 39°01' E 117°46'0 0.0
2014-Oct-13 00:32N 39°01' E 117°46'0 0.0
2014-Oct-12 23:32N 39°01' E 117°46'0 0.0
2014-Oct-12 22:32N 39°01' E 117°46'0 0.0
2014-Oct-12 21:20N 39°01' E 117°46'0 0.0
2014-Oct-12 20:32N 39°01' E 117°46'0 0.0
2014-Oct-12 19:32N 39°01' E 117°46'0 0.0
2014-Oct-12 18:32N 39°01' E 117°46'0 0.0
2014-Oct-12 17:26N 39°01' E 117°46'0 0.0
2014-Oct-12 16:32N 39°01' E 117°46'0 0.0
2014-Oct-12 15:26N 39°01' E 117°46'0 0.0
2014-Oct-12 14:26N 39°01' E 117°46'0 0.0
2014-Oct-12 13:32N 39°01' E 117°46'0 0.2
2014-Oct-12 12:32N 39°01' E 117°46'0 0.3
2014-Oct-12 11:32N 39°01' E 117°46'0 0.0
2014-Oct-12 10:32N 39°01' E 117°46'0 0.0
2014-Oct-12 09:32N 39°01' E 117°46'0 0.0
2014-Oct-12 08:32N 39°01' E 117°46'0 0.0
2014-Oct-12 07:32N 39°01' E 117°46'0 0.0
2014-Oct-12 06:32N 39°01' E 117°46'0 0.0
2014-Oct-12 05:26N 39°01' E 117°46'0 0.0
2014-Oct-12 04:26N 39°01' E 117°46'0 0.0
2014-Oct-12 03:32N 39°01' E 117°46'0 0.0
2014-Oct-12 02:26N 39°01' E 117°46'0 0.0
2014-Oct-12 01:32N 39°01' E 117°46'0 0.0
2014-Oct-12 00:32N 39°01' E 117°46'0 0.0
2014-Oct-11 23:26N 39°01' E 117°46'0 0.0
2014-Oct-11 22:28N 39°01' E 117°46'2 2.4
2014-Oct-11 21:33N 38°59' E 117°47'1412.8
2014-Oct-11 20:29N 38°56' E 118°04'6 6.2
2014-Oct-11 19:30N 38°53' E 118°11'50 9.8
2014-Oct-11 14:27N 38°48' E 119°15'910.5
2014-Oct-11 13:33N 38°48' E 119°27'2210.8
2014-Oct-11 11:31N 38°48' E 119°55'1212.3
2014-Oct-11 10:32N 38°48' E 120°10'1514.4
2014-Oct-11 09:29N 38°44' E 120°29'3515.1
2014-Oct-11 07:10N 38°29' E 121°09'914.3
2014-Oct-11 06:32N 38°23' E 121°18'1817.0
2014-Oct-11 05:30N 38°22' E 121°41'1916.2
2014-Oct-11 04:21N 38°27' E 122°04'4817.0
2014-Oct-11 01:33N 38°27' E 123°05'1817.4
2014-Oct-11 00:30N 38°25' E 123°28'3313.9
2014-Oct-10 22:08N 38°04' E 124°00'4718.2
2014-Oct-10 19:33N 37°17' E 123°60'1717.1
2014-Oct-10 18:33N 36°60' E 124°02'1716.6
2014-Oct-10 17:33N 36°43' E 123°60'1716.7
2014-Oct-10 16:33N 36°27' E 123°60'1717.1
2014-Oct-10 15:33N 36°10' E 124°00'1916.9
2014-Oct-10 14:24N 35°50' E 124°00'1616.6
2014-Oct-10 13:26N 35°34' E 123°59'2016.5
2014-Oct-10 12:13N 35°14' E 123°60'1116.3
2014-Oct-10 11:33N 35°03' E 123°60'3916.8
2014-Oct-10 09:14N 34°24' E 123°59'21115.3
2014-Oct-09 19:24N 31°05' E 122°35'1313.8
2014-Oct-09 18:30N 31°06' E 122°21'3214.4
2014-Oct-09 16:18N 31°18' E 121°46'5 4.7
2014-Oct-09 15:15N 31°19' E 121°41'0 0.0
2014-Oct-09 14:21N 31°19' E 121°41'0 0.0
2014-Oct-09 13:33N 31°19' E 121°41'0 0.0
2014-Oct-09 12:33N 31°19' E 121°41'0 0.0
2014-Oct-09 10:09N 31°19' E 121°41'0 0.0
2014-Oct-09 09:33N 31°19' E 121°41'0 0.0
2014-Oct-09 08:27N 31°19' E 121°41'0 0.0
2014-Oct-09 06:27N 31°19' E 121°41'0 0.0
2014-Oct-09 05:33N 31°19' E 121°41'0 0.0
2014-Oct-09 04:27N 31°19' E 121°41'5 5.1
2014-Oct-09 03:33N 31°18' E 121°46'3210.5
2014-Oct-09 00:29N 31°06' E 122°21'10 9.4
2014-Oct-08 23:28N 31°07' E 122°32'  

Dump ship's entire track history